Regional Weather Roundup
Issued by NWS Little Rock, AR

Home | Current Version | Previous Version | Text Only | Print | Product List | Glossary Off
Versions: 1 2 3 4 5 6 7 8 9 10 11 12 13 14 15 16 17 18 19 20 21 22 23 24 25 26 27 28 29 30 31

000
ASUS44 KLZK 112005
RWRLZK

WEATHER ROUNDUP FOR ARKANSAS
NATIONAL WEATHER SERVICE LITTLE ROCK AR
200 PM CST MON DEC 11 2017

NOTE: "FAIR" INDICATES FEW OR NO CLOUDS BELOW 12,000 FEET WITH NO
SIGNIFICANT WEATHER AND/OR OBSTRUCTIONS TO VISIBILITY.

ARZ001-003-010-029-112100-
NORTHWEST ARKANSAS

CITY           SKY/WX    TMP DP  RH WIND       PRES   REMARKS
FAYETTEVILLE   SUNNY     68  16  13 W16G24    30.01F
FORT SMITH     SUNNY     73  16  11 W16       30.00F
HARRISON       SUNNY     68  13  12 W12G25    29.94F
BENTONVILLE    SUNNY     62  21  20 NW16      30.03S HAZE
ROGERS         SUNNY     63  20  19 W12       30.01S
SILOAM SPGS    SUNNY     65  21  18 NW16      30.03
HIGHFILL       SUNNY     64  20  18 W15G22    30.01F
SPRINGDALE     SUNNY     66  18  15 NW13G22   30.02S
$$

ARZ004-005-016-112100-
NORTH CENTRAL ARKANSAS

CITY           SKY/WX    TMP DP  RH WIND       PRES   REMARKS
BATESVILLE     SUNNY     70  22  16 SW17G24   29.91F
FLIPPIN        SUNNY     72  14  11 NW15      29.91F
MTN HOME       SUNNY     69  15  12 NW10G21   29.91F
$$

ARZ040-041-112100-
WEST CENTRAL ARKANSAS

CITY           SKY/WX    TMP DP  RH WIND       PRES   REMARKS
MENA           SUNNY     75  14   9 SW10      30.03F
MOUNT IDA      SUNNY     77  14   9 VRB6      29.99F
$$

ARZ009-017-025-026-028-112100-
NORTHEAST ARKANSAS

CITY           SKY/WX    TMP DP  RH WIND       PRES   REMARKS
CORNING        FAIR      66  37  34 S20G28    29.85F
JONESBORO      SUNNY     66  34  30 SW24G30   29.90F
NEWPORT        SUNNY     69  26  20 SW24      29.90F
WALNUT RIDGE   SUNNY     69  29  22 SW25      29.86F
BLYTHEVILLE    SUNNY     64  37  36 SW23G30   29.91F
NW BLYTHEVILLE SUNNY     64  32  29 SW18G31   29.90F
$$

ARZ022-023-033-042-044-112100-
CENTRAL ARKANSAS

CITY           SKY/WX    TMP DP  RH WIND       PRES   REMARKS
LITTLE ROCK    MOSUNNY   71  24  17 SW15G23   29.99F
N LITTLE ROCK    N/A     72  25  17 W10G22    30.00F
JACKSONVILLE   SUNNY     73  27  18 S13       29.96F
SEARCY         SUNNY     72  27  18 SW10G20   29.96F
HOT SPRINGS    SUNNY     74  17  11 SW14G22   30.01F
RUSSELLVILLE   SUNNY     72  18  13 NW10      29.97F
CLINTON        FAIR      70  16  12 SW15G21   29.95F
$$

ARZ036-112100-
EAST ARKANSAS

CITY           SKY/WX    TMP DP  RH WIND       PRES   REMARKS
WEST MEMPHIS   SUNNY     65  31  28 SW10G21   29.96F
$$

ARZ050-053-066-070-073-112100-
SOUTHWEST ARKANSAS

CITY           SKY/WX    TMP DP  RH WIND       PRES   REMARKS
ARKADELPHIA    FAIR      74  22  14 SW14G21   30.02F
CAMDEN         SUNNY     75  19  12 SW12      30.05F
TEXARKANA      SUNNY     72  21  14 SW14      30.06F
EL DORADO      SUNNY     72  27  18 SW9       30.07F
DE QUEEN       SUNNY     74  25  16 W15       30.03F
$$

ARZ056-057-069-112100-
SOUTHEAST ARKANSAS

CITY           SKY/WX    TMP DP  RH WIND       PRES   REMARKS
PINE BLUFF     SUNNY     71  24  17 SW13G24   30.01F
STUTTGART      SUNNY     71  28  20 SW17      29.99F
MONTICELLO     SUNNY     71  27  19 W9        30.05F

$$






USA.gov is the U.S. government's official web portal to all federal, state and local government web resources and services.